Regional Weather Roundup
Issued by NWS

Home | Current Version | Previous Version | Graphics & Text | Print | Product List | Glossary On
Versions: 1 2 3 4 5 6 7 8 9 10 11 12 13 14 15 16 17 18 19 20 21 22 23 24 25 26 27 28 29 30 31 32 33 34 35 36 37 38 39 40 41 42 43 44 45 46 47 48 49 50
000
ASUS45 KBOU 160507
RWRCO

WEATHER ROUNDUP FOR COLORADO
NATIONAL WEATHER SERVICE DENVER/BOULDER CO
1000 PM MST SUN JAN 15 2017

NOTE: "FAIR" INDICATES FEW OR NO CLOUDS BELOW 12000 FEET WITH NO
SIGNIFICANT WEATHER AND/OR OBSTRUCTIONS TO VISIBILITY.

COZ001>005-013-030-031-160600-
...NORTHWEST COLORADO...

CITY           SKY/WX    TMP DP  RH WIND       PRES   REMARKS
CRAIG          CLOUDY    21  18  88 SW7       30.04R FOG     WCI  12
HAYDEN         CLOUDY    19  16  86 W6        30.01R WCI  11
MEEKER         MOCLDY    25  21  85 NW7       30.00R WCI  17
MOUNT WERNER   NOT AVBL
STEAMBOAT SPGS CLOUDY    22  20  95 CALM      29.99R
WALDEN           N/A    N/A N/A N/A CALM      29.98S VSB 1/2
$$

COZ006>008-011-160600-
...WEST CENTRAL VALLEYS...

CITY           SKY/WX    TMP DP  RH WIND       PRES   REMARKS
GRAND JUNCTION FAIR      35  29  78 CALM      29.95R
MONTROSE       LGT RAIN  36  34  92 CALM      29.96R
EAGLE          CLOUDY    28  27  93 CALM      29.97R
RIFLE          CLOUDY    32  26  78 SW5       29.97S WCI  27
DELTA          CLOUDY    39  31  73 CALM      29.95R
NUCLA          CLOUDY    36  32  87 NW3       29.97R
$$

COZ017>023-064>068-160600-
...SOUTHWEST COLORADO...

CITY           SKY/WX    TMP DP  RH WIND       PRES   REMARKS
DURANGO        CLOUDY    36  32  85 SW7       29.85R
CORTEZ         CLOUDY    36  35  96 W5        29.91R
PAGOSA SPRINGS LGT SNOW  34  34 100 CALM      29.86S VSB 1
TELLURIDE      LGT SNOW  30  30 100 CALM      29.93R
WOLF CREEK PAS CLOUDY    23  23 100 CALM      29.95S
$$

COZ009-010-012-014-032>034-037-058>063-160600-
...CENTRAL COLORADO...

CITY           SKY/WX    TMP DP  RH WIND       PRES   REMARKS
ASPEN          CLOUDY    29  27  92 CALM      29.91S
BUENA VISTA    LGT SNOW  30  28  92 CALM      29.90S
COPPER MTN     SNOW      28  23  80 CALM      29.95F VSB 1/4
BERTHOUD PASS  NOT AVBL
COTTONWOOD PAS FLURRIES  32  28  86 CALM      29.91F
GUNNISON       MIX PCPN  22  19  89 CALM      29.91F
KREMMLING      LGT SNOW  25  21  86 CALM      29.98S
LEADVILLE      LGT SNOW  25  23  92 CALM      29.90S FOG
MONARCH PASS   CLOUDY    23  21  93 MISG      30.01S
SALIDA         CLOUDY    33  32  96 CALM      29.98R
SUNLIGHT       CLOUDY    23  21  93 NE5       29.98S FOG     WCI  17
WILKERSON PASS CLOUDY    25  23  93 NE6       29.95S FOG     WCI  18
$$

COZ069>075-160600-
...SAN LUIS VALLEY/SANGRE DE CRISTO MOUNTAINS...

CITY           SKY/WX    TMP DP  RH WIND       PRES   REMARKS
ALAMOSA        CLOUDY    31  31 100 SE3       29.85R
LA VETA PASS   FOG       23  21  93 SW3       29.89S VSB 1/2
SAGUACHE       CLOUDY    32  30  93 E3        29.86R
$$

COZ035-036-038>040-160600-
...NORTHERN COLORADO FRONT RANGE...

CITY           SKY/WX    TMP DP  RH WIND       PRES   REMARKS
DENVER INTL AP FLURRIES  31  25  78 NW8       29.95S WCI  23
DMNS CITY PARK   N/A     33  27  79 NW1       29.97R
AURORA         FLURRIES  30  27  89 NW7       29.96R WCI  23
FRONT RANGE AP NOT AVBL
ERIE MUNI ARPT CLOUDY    33  30  89 CALM      29.97S
BOULDER MUN AP CLOUDY    32  32 100 W3        29.96F
CENTENNIAL     CLOUDY    31  28  89 N6        29.95R WCI  25
BROOMFIELD     NOT AVBL
FORT COLLINS   CLOUDY    32  27  80 CALM      29.97F
LONGMONT       CLOUDY    35  30  83 NW3       29.98F
$$

COZ041-046-047-076>085-087-088-160600-
...PIKES PEAK/PALMER DIVIDE AND SOUTHERN FOOTHILLS...

CITY           SKY/WX    TMP DP  RH WIND       PRES   REMARKS
COLO. SPRINGS  CLOUDY    34  27  75 NW6       29.92R WCI  29
A. F. ACADEMY  FLURRIES  31  27  85 N13       29.91R WCI  21
SCHRIEVER AFB  NOT AVBL
ELLICOTT       CLOUDY   N/A N/A N/A N9        29.90S
FALCON         CLOUDY    31  27  83 N14G22    29.90S WCI  21
FORT CARSON    LGT SNOW  32  32 100 VRB3      29.92S VSB 1
LIMON          CLOUDY    29  26  89 NW8       29.92F WCI  21
MONUMENT HILL  LGT SNOW  27  27 100 NW10      29.93S WCI  17
TRINIDAD       SNOW      30  28  92 SW3       29.92S VSB 1/2
$$

COZ042>045-048>051-090-091-160600-
...NORTHEAST COLORADO...

CITY           SKY/WX    TMP DP  RH WIND       PRES   REMARKS
GREELEY ARPT   CLOUDY    33  28  81 NW6       29.97F WCI  28
AKRON          FOG       28  26  92 NW7       29.95S VSB 1/2 WCI  21
BURLINGTON     FOG       31  29  92 NE7       29.96R VSB 1/4 WCI  24
WRAY           CLOUDY   N/A N/A N/A CALM      29.98F HAZE
STERLING       CLOUDY    30  30 100 N5        29.97F FOG     WCI  25
HOLYOKE        MIX PCPN  34  32  93 CALM      30.00R
FORT MORGAN    CLOUDY    29  27  92 CALM      29.97S
$$

COZ086-089-092>099-160600-
...SOUTHEAST COLORADO...

CITY           SKY/WX    TMP DP  RH WIND       PRES   REMARKS
PUEBLO         FOG       33  32  96 SE3       29.94R VSB 1
LA JUNTA       CLOUDY    33  31  92 NW5       29.95S FOG     WCI  29
LAMAR          CLOUDY    32  30  92 W5        29.93S FOG     WCI  27
SPRINGFIELD      N/A     30  30 100 N15       29.89F WCI  19
$$



USA.gov is the U.S. government's official web portal to all federal, state and local government web resources and services.